AEHF-5 (USA 292)

Last updated on Thu Oct 30 2025 00:02:51 GMT+0000 (Coordinated Universal Time)

1 44481U 19051A 25302.41803742 -.00000249 00000+0 00000+0 0 9992 2 44481 1.7516 321.4427 0066431 4.7956 315.2731 1.00267464 22946
UTC large
Height (km)
Speed (km/s)
/
Latitude / Longitude
Inclination (degrees)
Orbital Period (minutes)
Azimuth
Elevation
Range (km)
Doppler Factor

Next 0 passes for location: London (51.5072 / 0.1276)

Sorry there are no passes over London.